This is the latest recevied weather packets stored in our database for station/object K7TSD. If no packets are shown the sender has not sent any weather packets the latest 10 day(s).
| Time | Temp. | Humidity | Pressure | Rain* | Wind** | Luminosity | Snow |
|---|---|---|---|---|---|---|---|
| 1777759419 | 17.22° C | 39% | 1014.6 hPa | 0 mm | - | 194 W/m² | - |
| 1777759115 | 17.22° C | 39% | 1014.5 hPa | 0 mm | - | 228 W/m² | - |
| 1777758813 | 17.78° C | 39% | 1014.7 hPa | 0 mm | - | 267 W/m² | - |
| 1777758509 | 18.33° C | 40% | 1014.7 hPa | 0 mm | - | 547 W/m² | - |
| 1777758206 | 17.78° C | 40% | 1014.5 hPa | 0 mm | - | 438 W/m² | - |
| 1777757904 | 17.78° C | 38% | 1014.6 hPa | 0 mm | - | 505 W/m² | - |
| 1777757601 | 17.78° C | 37% | 1014.9 hPa | 0 mm | - | 295 W/m² | - |
| 1777757300 | 18.33° C | 39% | 1014.9 hPa | 0 mm | - | 383 W/m² | - |
| 1777756997 | 18.33° C | 37% | 1014.7 hPa | 0 mm | - | 520 W/m² | - |
| 1777756695 | 18.33° C | 39% | 1014.7 hPa | 0 mm | - | 522 W/m² | - |
| 1777756390 | 18.33° C | 38% | 1014.9 hPa | 0 mm | - | 620 W/m² | - |
| 1777756088 | 18.89° C | 38% | 1015 hPa | 0 mm | - | 649 W/m² | - |
| 1777755785 | 18.89° C | 36% | 1015 hPa | 0 mm | - | 614 W/m² | - |
| 1777755482 | 18.89° C | 38% | 1015 hPa | 0 mm | - | 573 W/m² | - |
| 1777755178 | 18.89° C | 38% | 1015.2 hPa | 0 mm | - | 727 W/m² | - |
| 1777754875 | 18.89° C | 37% | 1014.9 hPa | 0 mm | - | 674 W/m² | - |
| 1777754572 | 18.89° C | 37% | 1015.1 hPa | 0 mm | - | 585 W/m² | - |
| 1777754270 | 18.89° C | 37% | 1014.9 hPa | 0 mm | - | 661 W/m² | - |
| 1777753968 | 18.89° C | 37% | 1015.1 hPa | 0 mm | - | 701 W/m² | - |
| 1777753662 | 18.89° C | 36% | 1015 hPa | 0 mm | - | 722 W/m² | - |
| 1777753360 | 18.33° C | 35% | 1015 hPa | 0 mm | - | 701 W/m² | - |
| 1777753057 | 18.89° C | 35% | 1015 hPa | 0 mm | - | 750 W/m² | - |
| 1777752753 | 18.33° C | 35% | 1015.1 hPa | 0 mm | - | 725 W/m² | - |
| 1777752450 | 18.89° C | 36% | 1015.3 hPa | 0 mm | - | 716 W/m² | - |
| 1777752146 | 18.33° C | 37% | 1015.1 hPa | 0 mm | - | 666 W/m² | - |
* Rain latest hour (hover to see other rain measurements)
** Current wind speed in m/s (hover to see current wind gust speed)